Location: Newark
(42.8481°N, 0.4872°E)
Time: 16:46:41
(UTC+00:00)

A-11 Canister half - Pass Details

Date: 03 November 2020
Orbit: 1525 x 1683 km, 47.3° (Epoch: 22 November)

Event Time Altitude Azimuth Distance (km) Brightness Sun altitude
Rises 16:12:43 0° 281° (WNW) 4,768 12.5 5.0°
Reaches altitude 10° 16:15:52 10° 284° (WNW) 3,763 12.0 4.5°
Maximum altitude 16:25:21 70° 8° (N) 1,622 9.2 2.9°
Drops below altitude 10° 16:34:38 10° 92° (E) 3,691 10.5 1.4°
Sets 16:37:41 0° 95° (E) 4,672 11.0 0.8°
